Location: Elbart
(49.6135°N, 11.9134°E)
Time: 23:40:20
(UTC+00:00)

CZ-4C R/B - Pass Details

Date: 09 April 2020
Orbit: 637 x 1365 km, 63.4° (Epoch: 30 May)

Event Time Altitude Azimuth Distance (km) Brightness Sun altitude
Rises 22:38:30 0° 313° (NW) 3,881 6.4 -31.9°
Reaches altitude 10° 22:41:17 10° 304° (NW) 3,026 5.5 -31.9°
Enters shadow 22:47:00 33° 254° (WSW) 1,956 3.9 -32.1°
